TimeEDT,TemperatureF,Dew PointF,Humidity,Sea Level PressureIn,VisibilityMPH,Wind Direction,Wind SpeedMPH,Gust SpeedMPH,PrecipitationIn,Events,Conditions,WindDirDegrees,DateUTC
12:51 AM,39.0,32.0,76,30.28,10.0,East,5.8,-,N/A,,Clear,100,2013-03-11 04:51:00
1:51 AM,37.0,32.0,82,30.27,10.0,East,6.9,-,N/A,,Clear,100,2013-03-11 05:51:00
2:13 AM,37.4,32.0,81,30.26,10.0,East,4.6,-,N/A,,Mostly Cloudy,100,2013-03-11 06:13:00
2:51 AM,37.9,33.1,83,30.26,10.0,SE,6.9,-,N/A,,Overcast,140,2013-03-11 06:51:00
3:51 AM,39.0,34.0,82,30.25,10.0,Calm,Calm,-,N/A,,Overcast,0,2013-03-11 07:51:00
4:33 AM,39.2,35.6,87,30.22,10.0,Calm,Calm,-,N/A,,Overcast,0,2013-03-11 08:33:00
4:51 AM,39.9,36.0,86,30.22,9.0,Calm,Calm,-,N/A,,Overcast,0,2013-03-11 08:51:00
5:41 AM,39.2,37.4,93,30.22,5.0,SE,3.5,-,N/A,,Overcast,130,2013-03-11 09:41:00
5:51 AM,39.2,37.4,93,30.21,6.0,ESE,3.5,-,N/A,,Overcast,110,2013-03-11 09:51:00
6:51 AM,39.9,37.9,93,30.21,2.0,SE,4.6,-,N/A,,Overcast,140,2013-03-11 10:51:00
7:14 AM,39.2,37.4,93,30.20,1.0,Calm,Calm,-,N/A,,Overcast,0,2013-03-11 11:14:00
7:51 AM,39.9,39.0,97,30.22,1.0,SSW,4.6,-,N/A,,Overcast,200,2013-03-11 11:51:00
8:51 AM,42.1,39.0,89,30.22,5.0,SE,3.5,-,N/A,,Overcast,130,2013-03-11 12:51:00
9:51 AM,43.0,39.0,86,30.22,10.0,SE,3.5,-,N/A,,Overcast,140,2013-03-11 13:51:00
10:51 AM,45.0,39.9,82,30.22,10.0,SE,4.6,-,N/A,,Overcast,140,2013-03-11 14:51:00
11:51 AM,48.9,39.9,71,30.19,10.0,SE,5.8,-,N/A,,Mostly Cloudy,140,2013-03-11 15:51:00
12:04 PM,48.2,39.2,71,30.18,10.0,ESE,3.5,-,N/A,,Scattered Clouds,120,2013-03-11 16:04:00
12:51 PM,51.1,39.9,66,30.18,10.0,ESE,4.6,-,N/A,,Mostly Cloudy,110,2013-03-11 16:51:00
1:18 PM,53.6,39.2,58,30.16,10.0,Variable,4.6,-,N/A,,Clear,0,2013-03-11 17:18:00
1:51 PM,55.0,39.0,55,30.15,10.0,SSE,8.1,-,N/A,,Clear,150,2013-03-11 17:51:00
2:51 PM,55.9,34.0,44,30.12,10.0,SSE,11.5,-,N/A,,Clear,150,2013-03-11 18:51:00
3:51 PM,55.9,33.1,42,30.10,10.0,South,11.5,-,N/A,,Partly Cloudy,180,2013-03-11 19:51:00
4:51 PM,57.0,37.0,47,30.08,10.0,SSE,9.2,-,N/A,,Mostly Cloudy,160,2013-03-11 20:51:00
5:51 PM,57.0,39.9,53,30.06,10.0,SSE,6.9,-,N/A,,Mostly Cloudy,160,2013-03-11 21:51:00
6:51 PM,57.0,37.9,49,30.05,10.0,SSE,6.9,-,N/A,,Mostly Cloudy,150,2013-03-11 22:51:00
7:51 PM,57.0,41.0,55,30.06,10.0,SSE,9.2,-,N/A,,Overcast,150,2013-03-11 23:51:00
8:51 PM,54.0,44.1,69,30.03,10.0,SE,11.5,-,N/A,,Mostly Cloudy,140,2013-03-12 00:51:00
9:34 PM,53.6,44.6,72,30.05,10.0,SSE,6.9,-,N/A,,Mostly Cloudy,150,2013-03-12 01:34:00
9:51 PM,53.1,46.0,77,30.07,10.0,SSE,9.2,-,N/A,,Overcast,160,2013-03-12 01:51:00
10:21 PM,53.6,46.4,77,30.04,10.0,SE,8.1,-,N/A,,Overcast,130,2013-03-12 02:21:00
10:51 PM,52.0,46.0,80,30.03,10.0,SE,10.4,-,N/A,,Scattered Clouds,140,2013-03-12 02:51:00
11:51 PM,53.1,46.9,80,30.03,10.0,South,8.1,16.1,N/A,,Overcast,180,2013-03-12 03:51:00